Montego Bay, Jamaica

1:59 AM EST on March 27, 2017 (GMT -0500)
Sangster International

Weather History for MKJS - December, 2013

Change the Weather History Date:

Thursday, December 19, 2013

  Actual Average Record
Temperature  
Mean Temperature 80 °F -  
Max Temperature 87 °F 81 °F 89 °F (2015)
Min Temperature 74 °F 73 °F 71 °F (2008)
Cooling Degree Days 16    
Growing Degree Days 30 (Base 50)    
Moisture  
Dew Point 74 °F    
Average Humidity 80    
Maximum Humidity 94    
Minimum Humidity 65    
Precipitation  
Precipitation 0.00 in - - ()
Sea Level Pressure  
Sea Level Pressure 29.99 in    
Wind  
Wind Speed 7 mph ()    
Max Wind Speed 17 mph    
Max Gust Speed -    
Visibility 8.1 miles    
Events      
Averages and records for this station are not official NWS values.
T = Trace of Precipitation, MM = Missing Value Source: Averaged Metar Reports

Daily Weather History Graph

Daily Weather History Graph

Search for Another Location

Airport or City:

Trip Planner

Search our weather history database for the weather conditions in past years. The results will help you decide how hot, cold, wet, or windy it might be!

Date:

Astronomy

Dec. 19, 2013 Rise Set
Actual Time 6:38 AM EST 5:39 PM EST
Civil Twilight 6:14 AM EST 6:03 PM EST
Nautical Twilight 5:47 AM EST 6:30 PM EST
Astronomical Twilight 5:20 AM EST 6:57 PM EST
Moon 7:47 PM EST (12/19) 8:10 AM EST (12/19)
Length of Visible Light 11h 48m
Length of Day
11h 01m
Waning Gibbous, 95% of the Moon is Illuminated
Dec 19
Waning Gibbous
Dec 25
Last Quarter
Jan 1
New
Jan 7
First Quarter
Jan 15
Full

Hourly Weather History & Observations

Time (EST) Temp. Heat Index Dew Point Humidity Pressure Visibility Wind Dir Wind Speed Gust Speed Precip Events Conditions
12:00 AM 77.0 °F - 73.4 °F 89% 30.01 in 6.2 mi ESE 3.5 mph - N/A   Partly Cloudy
1:00 AM 76 °F - 73 °F 89% 30.01 in 12 mi 2.3 mph - -   Partly Cloudy
1:00 AM 75.2 °F - 73.4 °F 94% 30.01 in 6.2 mi Variable 2.3 mph - N/A   Partly Cloudy
2:00 AM 75.2 °F - 73.4 °F 94% 29.98 in 6.2 mi SE 3.5 mph - N/A   Partly Cloudy
3:00 AM 75.2 °F - 73.4 °F 94% 29.98 in 6.2 mi Variable 2.3 mph - N/A   Partly Cloudy
4:00 AM 77 °F - 72 °F 82% 29.98 in 12 mi ESE 6.9 mph - -   Scattered Clouds
4:00 AM 77.0 °F - 73.4 °F 89% 29.98 in 6.2 mi ESE 6.9 mph - N/A   Partly Cloudy
5:00 AM 77.0 °F - 71.6 °F 83% 29.98 in 6.2 mi ESE 9.2 mph - N/A   Partly Cloudy
6:00 AM 77.0 °F - 71.6 °F 83% 29.98 in 6.2 mi SE 8.1 mph - N/A   Partly Cloudy
7:00 AM 76 °F - 71 °F 79% 30.01 in 16 mi SE 6.9 mph - -   Haze
7:00 AM 77.0 °F - 71.6 °F 83% 30.01 in 6.2 mi SE 6.9 mph - N/A   Partly Cloudy
8:00 AM 78.8 °F - 71.6 °F 78% 30.01 in 6.2 mi SE 4.6 mph - N/A   Partly Cloudy
9:00 AM 82.4 °F 88.2 °F 73.4 °F 74% 30.04 in 6.2 mi East 10.4 mph - N/A   Partly Cloudy
10:00 AM 83 °F - 73 °F 65% 30.05 in 16 mi East 10.4 mph - -   Haze
10:00 AM 84.2 °F 90.9 °F 73.4 °F 70% 30.04 in 6.2 mi East 10.4 mph - N/A   Partly Cloudy
11:00 AM 84.2 °F 92.3 °F 75.2 °F 74% 30.04 in 6.2 mi ENE 17.3 mph - N/A   Scattered Clouds
12:00 PM 84.2 °F 94.1 °F 77.0 °F 79% 30.01 in 6.2 mi ENE 13.8 mph - N/A   Scattered Clouds
1:00 PM 84 °F - 75 °F 68% 29.99 in 16 mi East 17.3 mph - -   Haze
1:00 PM 84.2 °F 92.3 °F 75.2 °F 74% 29.98 in 6.2 mi East 17.3 mph - N/A   Partly Cloudy
2:00 PM 84.2 °F 94.1 °F 77.0 °F 79% 29.95 in 6.2 mi ENE 17.3 mph - N/A   Partly Cloudy
3:00 PM 84.2 °F 94.1 °F 77.0 °F 79% 29.95 in 6.2 mi East 17.3 mph - N/A   Scattered Clouds
4:00 PM 83 °F - 76 °F 74% 29.95 in 14 mi East 13.8 mph - -   Haze
4:00 PM 82.4 °F 89.5 °F 75.2 °F 79% 29.95 in 6.2 mi East 13.8 mph - N/A   Scattered Clouds
5:00 PM 82.4 °F 89.5 °F 75.2 °F 79% 29.95 in 6.2 mi East 12.7 mph - N/A   Partly Cloudy
6:00 PM 80.6 °F 85.4 °F 73.4 °F 79% 29.95 in 6.2 mi East 9.2 mph - N/A   Partly Cloudy
7:00 PM 80 °F - 74 °F 78% 29.97 in 12 mi ESE 5.8 mph - -   Haze
7:00 PM 80.6 °F 86.2 °F 75.2 °F 84% 29.95 in 6.2 mi ESE 5.8 mph - N/A   Partly Cloudy
8:00 PM 78.8 °F - 73.4 °F 83% 29.98 in 6.2 mi Variable 1.2 mph - N/A   Partly Cloudy
9:00 PM 78.8 °F - 73.4 °F 83% 30.01 in 6.2 mi SE 3.5 mph - N/A   Partly Cloudy
10:00 PM 79 °F - 73 °F 76% 30.01 in 12 mi East 8.1 mph - -   Haze
10:00 PM 78.8 °F - 73.4 °F 83% 30.01 in 6.2 mi East 8.1 mph - N/A   Partly Cloudy
11:00 PM 78.8 °F - 71.6 °F 78% 30.01 in 6.2 mi SE 4.6 mph - N/A   Partly Cloudy